Wetterdaten: aktuell Samstag, 07.12.2019 18:00
Datum Zeit Temp. Aussen Feuchte A. Sonne Luftdruck Regen Richtung Richtung Sonnen-Zeit Windben
07.12.2019 18:00 7,9 C 64 % 0 % 1019,4 hPa 0,0 l/m W-SW 243 0 min 8,6 km/h (2 Bft)
07.12.2019 17:55 7,9 C 63 % 0 % 1019,4 hPa 0,0 l/m W 266 0 min 11,2 km/h (2 Bft)
07.12.2019 17:50 7,9 C 62 % 0 % 1019,4 hPa 0,0 l/m W 260 0 min 14,7 km/h (3 Bft)
07.12.2019 17:45 7,9 C 62 % 0 % 1019,4 hPa 0,0 l/m SW 226 0 min 13,0 km/h (3 Bft)
07.12.2019 17:40 7,8 C 63 % 0 % 1019,5 hPa 0,0 l/m SW 224 0 min 16,0 km/h (3 Bft)
07.12.2019 17:35 7,8 C 63 % 0 % 1019,5 hPa 0,0 l/m W 271 0 min 13,8 km/h (3 Bft)
07.12.2019 17:30 7,7 C 63 % 0 % 1019,5 hPa 0,0 l/m S-SW 207 0 min 13,0 km/h (3 Bft)
07.12.2019 17:25 7,5 C 63 % 0 % 1019,5 hPa 0,0 l/m SO 137 0 min 13,0 km/h (3 Bft)
07.12.2019 17:20 7,5 C 61 % 0 % 1019,5 hPa 0,0 l/m SW 219 0 min 12,1 km/h (2 Bft)
07.12.2019 17:15 7,7 C 61 % 0 % 1019,5 hPa 0,0 l/m W-SW 245 0 min 12,1 km/h (2 Bft)
07.12.2019 17:10 8,0 C 60 % 0 % 1019,4 hPa 0,0 l/m SW 228 0 min 12,1 km/h (2 Bft)
07.12.2019 17:05 8,0 C 62 % 0 % 1019,4 hPa 0,0 l/m W-SW 241 0 min 16,0 km/h (3 Bft)
07.12.2019 17:00 8,0 C 63 % 0 % 1019,4 hPa 0,0 l/m SW 224 0 min 16,8 km/h (3 Bft)
07.12.2019 16:55 8,0 C 63 % 0 % 1019,4 hPa 0,0 l/m W-SW 239 0 min 15,6 km/h (3 Bft)
07.12.2019 16:50 8,0 C 63 % 0 % 1019,4 hPa 0,0 l/m W 268 0 min 13,0 km/h (3 Bft)
07.12.2019 16:45 7,9 C 63 % 0 % 1019,4 hPa 0,0 l/m W-SW 243 0 min 12,1 km/h (2 Bft)
07.12.2019 16:40 8,0 C 63 % 0 % 1019,4 hPa 0,0 l/m W-SW 244 0 min 10,4 km/h (2 Bft)
07.12.2019 16:35 8,1 C 62 % 1 % 1019,4 hPa 0,0 l/m W-SW 246 0 min 11,2 km/h (2 Bft)
07.12.2019 16:30 8,2 C 62 % 3 % 1019,4 hPa 0,0 l/m W-SW 248 0 min 16,0 km/h (3 Bft)
07.12.2019 16:25 8,2 C 62 % 4 % 1019,4 hPa 0,0 l/m W-SW 247 0 min 11,2 km/h (2 Bft)
07.12.2019 16:20 8,2 C 63 % 6 % 1019,4 hPa 0,0 l/m W-SW 257 0 min 7,8 km/h (2 Bft)
07.12.2019 16:15 8,2 C 63 % 10 % 1019,4 hPa 0,0 l/m W-SW 253 0 min 9,5 km/h (2 Bft)
07.12.2019 16:10 8,3 C 63 % 12 % 1019,4 hPa 0,0 l/m W 273 5 min 16,8 km/h (3 Bft)
07.12.2019 16:05 8,3 C 63 % 14 % 1019,4 hPa 0,0 l/m W-SW 258 5 min 14,7 km/h (3 Bft)
07.12.2019 16:00 8,3 C 63 % 18 % 1019,4 hPa 0,0 l/m W-SW 245 5 min 15,6 km/h (3 Bft)
07.12.2019 15:55 8,3 C 64 % 20 % 1019,4 hPa 0,0 l/m W-SW 256 5 min 16,0 km/h (3 Bft)
07.12.2019 15:50 8,3 C 64 % 23 % 1019,4 hPa 0,0 l/m W 261 5 min 14,7 km/h (3 Bft)
07.12.2019 15:45 8,2 C 63 % 35 % 1018,4 hPa 0,0 l/m W-SW 249 5 min 12,1 km/h (2 Bft)
07.12.2019 15:40 8,2 C 63 % 38 % 1018,4 hPa 0,0 l/m W-SW 253 5 min 13,8 km/h (3 Bft)
07.12.2019 15:35 8,2 C 62 % 31 % 1018,4 hPa 0,0 l/m W-SW 240 5 min 14,7 km/h (3 Bft)
07.12.2019 15:30 8,3 C 61 % 27 % 1018,4 hPa 0,0 l/m W-SW 246 5 min 18,6 km/h (3 Bft)
07.12.2019 15:25 8,5 C 60 % 31 % 1018,3 hPa 0,0 l/m W-SW 258 5 min 16,0 km/h (3 Bft)
07.12.2019 15:20 8,7 C 59 % 31 % 1018,3 hPa 0,0 l/m W-SW 252 5 min 12,1 km/h (2 Bft)
07.12.2019 15:15 8,7 C 59 % 36 % 1018,3 hPa 0,0 l/m W 261 0 min 16,0 km/h (3 Bft)
07.12.2019 15:10 8,9 C 59 % 30 % 1018,3 hPa 0,0 l/m W-SW 241 0 min 13,8 km/h (3 Bft)
07.12.2019 15:05 8,9 C 60 % 44 % 1018,3 hPa 0,0 l/m W-SW 243 0 min 12,1 km/h (2 Bft)
07.12.2019 15:00 8,9 C 59 % 42 % 1018,3 hPa 0,0 l/m W-SW 243 0 min 13,8 km/h (3 Bft)
07.12.2019 14:55 9,1 C 58 % 32 % 1018,3 hPa 0,0 l/m W 259 0 min 15,6 km/h (3 Bft)
07.12.2019 14:50 9,2 C 57 % 36 % 1018,3 hPa 0,0 l/m W-SW 252 0 min 15,6 km/h (3 Bft)
07.12.2019 14:45 9,3 C 57 % 55 % 1018,3 hPa 0,0 l/m W-SW 250 0 min 16,8 km/h (3 Bft)
07.12.2019 14:40 9,3 C 58 % 42 % 1018,3 hPa 0,0 l/m W-SW 240 0 min 15,6 km/h (3 Bft)
07.12.2019 14:35 9,5 C 58 % 45 % 1018,2 hPa 0,0 l/m W-SW 238 0 min 18,6 km/h (3 Bft)
07.12.2019 14:30 9,4 C 57 % 62 % 1018,2 hPa 0,0 l/m W-SW 258 0 min 16,8 km/h (3 Bft)
07.12.2019 14:25 9,3 C 59 % 66 % 1018,3 hPa 0,0 l/m W-SW 248 0 min 21,2 km/h (4 Bft)
07.12.2019 14:20 9,2 C 59 % 30 % 1018,3 hPa 0,0 l/m W-SW 237 0 min 11,2 km/h (2 Bft)
07.12.2019 14:15 9,3 C 58 % 37 % 1018,3 hPa 0,0 l/m W-SW 256 0 min 16,0 km/h (3 Bft)
07.12.2019 14:10 9,3 C 57 % 32 % 1018,3 hPa 0,0 l/m W-SW 244 0 min 12,1 km/h (2 Bft)
07.12.2019 14:05 9,3 C 58 % 36 % 1018,3 hPa 0,0 l/m W-SW 256 0 min 14,7 km/h (3 Bft)
07.12.2019 14:00 9,4 C 57 % 37 % 1018,2 hPa 0,0 l/m W-SW 247 0 min 16,0 km/h (3 Bft)
07.12.2019 13:55 9,4 C 59 % 38 % 1018,2 hPa 0,0 l/m W-SW 247 0 min 11,2 km/h (2 Bft)
07.12.2019 13:50 9,3 C 58 % 46 % 1018,3 hPa 0,0 l/m W-SW 245 0 min 11,2 km/h (2 Bft)
07.12.2019 13:45 9,4 C 57 % 39 % 1018,2 hPa 0,0 l/m W-SW 249 0 min 11,2 km/h (2 Bft)
07.12.2019 13:40 9,5 C 56 % 31 % 1018,2 hPa 0,0 l/m W-SW 253 0 min 15,6 km/h (3 Bft)
07.12.2019 13:35 9,7 C 56 % 39 % 1018,2 hPa 0,0 l/m W 259 0 min 15,6 km/h (3 Bft)
07.12.2019 13:30 9,8 C 56 % 47 % 1018,2 hPa 0,0 l/m W-SW 245 0 min 19,4 km/h (3 Bft)
07.12.2019 13:25 9,7 C 56 % 56 % 1018,2 hPa 0,0 l/m W-SW 258 0 min 16,8 km/h (3 Bft)
07.12.2019 13:20 9,7 C 57 % 42 % 1018,2 hPa 0,0 l/m W-SW 248 0 min 13,8 km/h (3 Bft)
07.12.2019 13:15 9,8 C 56 % 54 % 1018,2 hPa 0,0 l/m W-SW 248 0 min 15,6 km/h (3 Bft)
07.12.2019 13:10 9,7 C 57 % 66 % 1018,2 hPa 0,0 l/m W-SW 244 0 min 16,0 km/h (3 Bft)
07.12.2019 13:05 9,7 C 58 % 63 % 1018,2 hPa 0,0 l/m W-SW 256 0 min 14,7 km/h (3 Bft)
07.12.2019 13:00 9,6 C 58 % 62 % 1018,2 hPa 0,0 l/m W 260 0 min 16,8 km/h (3 Bft)
07.12.2019 12:55 9,7 C 57 % 63 % 1018,2 hPa 0,0 l/m W 259 0 min 14,7 km/h (3 Bft)
07.12.2019 12:50 9,7 C 58 % 64 % 1018,2 hPa 0,0 l/m W-SW 254 0 min 12,1 km/h (2 Bft)
07.12.2019 12:45 9,6 C 57 % 67 % 1018,2 hPa 0,0 l/m W-SW 248 0 min 18,6 km/h (3 Bft)
07.12.2019 12:40 9,6 C 58 % 57 % 1018,2 hPa 0,0 l/m W-SW 248 0 min 13,8 km/h (3 Bft)
07.12.2019 12:35 9,6 C 59 % 56 % 1018,2 hPa 0,0 l/m W-SW 256 0 min 16,0 km/h (3 Bft)
07.12.2019 12:30 9,5 C 59 % 63 % 1018,2 hPa 0,0 l/m W-SW 245 0 min 16,8 km/h (3 Bft)
07.12.2019 12:25 9,4 C 60 % 52 % 1018,2 hPa 0,0 l/m W-SW 250 0 min 9,5 km/h (2 Bft)
07.12.2019 12:20 9,3 C 61 % 63 % 1018,3 hPa 0,0 l/m W-SW 251 0 min 16,0 km/h (3 Bft)
07.12.2019 12:15 9,1 C 63 % 61 % 1018,3 hPa 0,0 l/m W-SW 253 0 min 14,7 km/h (3 Bft)
07.12.2019 12:10 9,1 C 61 % 43 % 1018,3 hPa 0,0 l/m W-SW 251 0 min 16,8 km/h (3 Bft)
07.12.2019 12:05 9,2 C 62 % 45 % 1018,3 hPa 0,0 l/m W-SW 257 0 min 21,2 km/h (4 Bft)
07.12.2019 12:00 9,3 C 62 % 51 % 1018,3 hPa 0,0 l/m SW 229 0 min 14,7 km/h (3 Bft)
07.12.2019 11:55 9,3 C 62 % 57 % 1018,3 hPa 0,0 l/m W-SW 247 0 min 23,8 km/h (4 Bft)
07.12.2019 11:50 9,2 C 63 % 58 % 1018,3 hPa 0,0 l/m W-SW 245 0 min 15,6 km/h (3 Bft)
07.12.2019 11:45 9,1 C 63 % 65 % 1018,3 hPa 0,0 l/m W-SW 255 0 min 20,3 km/h (4 Bft)
07.12.2019 11:40 9,0 C 63 % 55 % 1018,3 hPa 0,0 l/m W-SW 248 0 min 16,0 km/h (3 Bft)
07.12.2019 11:35 9,0 C 63 % 50 % 1018,3 hPa 0,0 l/m W-SW 238 0 min 16,8 km/h (3 Bft)
07.12.2019 11:30 9,0 C 63 % 49 % 1018,3 hPa 0,0 l/m W 270 0 min 21,2 km/h (4 Bft)
07.12.2019 11:25 9,0 C 63 % 61 % 1018,3 hPa 0,0 l/m W-SW 257 0 min 20,3 km/h (4 Bft)
07.12.2019 11:20 9,0 C 63 % 49 % 1018,3 hPa 0,0 l/m W-SW 246 0 min 19,4 km/h (3 Bft)
07.12.2019 11:15 9,0 C 63 % 54 % 1018,3 hPa 0,0 l/m W 267 0 min 15,6 km/h (3 Bft)
07.12.2019 11:10 9,0 C 64 % 57 % 1018,3 hPa 0,0 l/m W-SW 250 0 min 19,4 km/h (3 Bft)
07.12.2019 11:05 8,9 C 66 % 64 % 1018,3 hPa 0,0 l/m W 265 0 min 16,8 km/h (3 Bft)
07.12.2019 11:00 8,7 C 68 % 62 % 1018,3 hPa 0,0 l/m SW 235 0 min 14,7 km/h (3 Bft)
07.12.2019 10:55 8,7 C 66 % 50 % 1018,3 hPa 0,0 l/m W-SW 240 0 min 13,8 km/h (3 Bft)
07.12.2019 10:50 8,7 C 66 % 54 % 1018,3 hPa 0,0 l/m W-SW 256 0 min 9,5 km/h (2 Bft)
07.12.2019 10:45 8,7 C 66 % 64 % 1018,3 hPa 0,0 l/m W-SW 246 0 min 14,7 km/h (3 Bft)
07.12.2019 10:40 8,6 C 68 % 61 % 1018,3 hPa 0,0 l/m W 277 0 min 20,3 km/h (4 Bft)
07.12.2019 10:35 8,5 C 70 % 64 % 1018,3 hPa 0,0 l/m W-SW 257 0 min 16,8 km/h (3 Bft)
07.12.2019 10:30 8,4 C 71 % 65 % 1018,4 hPa 0,0 l/m W-SW 253 0 min 13,8 km/h (3 Bft)
07.12.2019 10:25 8,3 C 72 % 63 % 1018,4 hPa 0,0 l/m W-SW 252 0 min 12,1 km/h (2 Bft)
07.12.2019 10:20 8,2 C 73 % 62 % 1018,4 hPa 0,0 l/m W-SW 250 0 min 14,7 km/h (3 Bft)
07.12.2019 10:15 8,1 C 74 % 57 % 1018,4 hPa 0,0 l/m W-SW 251 0 min 11,2 km/h (2 Bft)
07.12.2019 10:10 8,1 C 76 % 61 % 1018,4 hPa 0,0 l/m W-SW 244 0 min 11,2 km/h (2 Bft)
07.12.2019 10:05 8,0 C 78 % 58 % 1018,4 hPa 0,0 l/m W-SW 245 0 min 11,2 km/h (2 Bft)
07.12.2019 10:00 7,9 C 81 % 62 % 1018,4 hPa 0,0 l/m W-SW 251 0 min 13,0 km/h (3 Bft)
07.12.2019 09:55 7,8 C 84 % 60 % 1018,4 hPa 0,0 l/m W 263 0 min 13,8 km/h (3 Bft)
07.12.2019 09:50 7,9 C 86 % 59 % 1018,4 hPa 0,0 l/m W-SW 248 0 min 10,4 km/h (2 Bft)
07.12.2019 09:45 7,9 C 88 % 60 % 1018,4 hPa 0,0 l/m W-SW 246 0 min 6,9 km/h (2 Bft)
07.12.2019 09:40 7,9 C 88 % 57 % 1018,4 hPa 0,0 l/m W-SW 242 0 min 7,8 km/h (2 Bft)
07.12.2019 09:35 7,8 C 89 % 61 % 1018,4 hPa 0,0 l/m W-SW 245 0 min 14,7 km/h (3 Bft)
07.12.2019 09:30 7,6 C 89 % 59 % 1017,4 hPa 0,0 l/m W-SW 251 5 min 16,8 km/h (3 Bft)
07.12.2019 09:25 7,5 C 89 % 57 % 1017,4 hPa 0,0 l/m W-SW 238 5 min 14,7 km/h (3 Bft)
07.12.2019 09:20 7,4 C 89 % 56 % 1017,4 hPa 0,0 l/m W 260 5 min 11,2 km/h (2 Bft)
07.12.2019 09:15 7,3 C 89 % 57 % 1017,4 hPa 0,0 l/m W-SW 256 5 min 10,4 km/h (2 Bft)
07.12.2019 09:10 7,2 C 88 % 55 % 1017,5 hPa 0,0 l/m W-SW 240 5 min 11,2 km/h (2 Bft)
07.12.2019 09:05 7,1 C 86 % 55 % 1017,5 hPa 0,0 l/m W 267 5 min 12,1 km/h (2 Bft)
07.12.2019 09:00 7,1 C 84 % 55 % 1017,5 hPa 0,0 l/m W 259 5 min 16,8 km/h (3 Bft)
07.12.2019 08:55 7,0 C 83 % 51 % 1017,5 hPa 0,3 l/m W-SW 254 5 min 11,2 km/h (2 Bft)
07.12.2019 08:50 7,1 C 83 % 47 % 1017,5 hPa 0,3 l/m W 264 5 min 9,5 km/h (2 Bft)
07.12.2019 08:45 7,1 C 83 % 47 % 1017,5 hPa 0,0 l/m NW 306 5 min 0,0 km/h (0 Bft)
07.12.2019 08:40 7,1 C 83 % 43 % 1017,5 hPa 0,0 l/m W-NW 284 5 min 5,2 km/h (1 Bft)
07.12.2019 08:35 7,0 C 83 % 44 % 1017,5 hPa 0,0 l/m W-NW 284 5 min 12,1 km/h (2 Bft)
07.12.2019 08:30 7,0 C 81 % 41 % 1017,5 hPa 0,0 l/m W-NW 286 5 min 12,1 km/h (2 Bft)
07.12.2019 08:25 7,1 C 81 % 40 % 1017,5 hPa 0,0 l/m W-SW 253 5 min 10,4 km/h (2 Bft)
07.12.2019 08:20 7,1 C 79 % 40 % 1017,5 hPa 0,0 l/m SW 224 5 min 10,4 km/h (2 Bft)
07.12.2019 08:15 7,1 C 78 % 41 % 1017,5 hPa 0,0 l/m W-SW 244 0 min 16,0 km/h (3 Bft)
07.12.2019 08:10 7,2 C 76 % 41 % 1017,5 hPa 0,3 l/m W 260 0 min 11,2 km/h (2 Bft)
07.12.2019 08:05 7,3 C 73 % 40 % 1017,4 hPa 0,3 l/m W-SW 243 0 min 6,9 km/h (2 Bft)
07.12.2019 08:00 7,4 C 72 % 38 % 1016,4 hPa 0,0 l/m W-SW 253 0 min 15,6 km/h (3 Bft)
07.12.2019 07:55 7,6 C 70 % 22 % 1016,4 hPa 0,3 l/m S-SW 206 0 min 15,6 km/h (3 Bft)
07.12.2019 07:50 7,8 C 68 % 15 % 1016,4 hPa 0,0 l/m SW 234 0 min 15,6 km/h (3 Bft)
07.12.2019 07:45 7,9 C 66 % 2 % 1016,3 hPa 0,3 l/m W-SW 251 0 min 19,4 km/h (3 Bft)
07.12.2019 07:40 8,1 C 63 % 0 % 1016,3 hPa 0,0 l/m W-SW 249 0 min 16,8 km/h (3 Bft)
07.12.2019 07:35 8,2 C 61 % 0 % 1016,3 hPa 0,0 l/m SW 231 0 min 20,3 km/h (4 Bft)
07.12.2019 07:30 8,2 C 61 % 0 % 1016,3 hPa 0,0 l/m W-SW 238 0 min 16,0 km/h (3 Bft)
07.12.2019 07:25 8,2 C 62 % 0 % 1016,3 hPa 0,0 l/m S-SW 210 0 min 28,9 km/h (5 Bft)
07.12.2019 07:20 8,2 C 63 % 0 % 1016,3 hPa 0,0 l/m W-SW 250 0 min 21,2 km/h (4 Bft)
07.12.2019 07:15 8,1 C 63 % 0 % 1016,3 hPa 0,0 l/m SW 223 0 min 25,5 km/h (4 Bft)
07.12.2019 07:10 8,0 C 64 % 0 % 1016,3 hPa 0,0 l/m W-SW 243 0 min 21,2 km/h (4 Bft)
07.12.2019 07:05 8,0 C 64 % 0 % 1016,3 hPa 0,0 l/m SW 233 0 min 25,5 km/h (4 Bft)
07.12.2019 07:00 7,9 C 65 % 0 % 1016,3 hPa 0,0 l/m W-SW 248 0 min 29,8 km/h (5 Bft)
07.12.2019 06:55 7,8 C 66 % 0 % 1016,4 hPa 0,0 l/m SW 229 0 min 20,3 km/h (4 Bft)
07.12.2019 06:50 7,8 C 68 % 0 % 1016,4 hPa 0,0 l/m W-SW 255 0 min 20,3 km/h (4 Bft)
07.12.2019 06:45 7,7 C 70 % 0 % 1015,3 hPa 0,0 l/m S-SW 207 0 min 22,9 km/h (4 Bft)
07.12.2019 06:40 7,7 C 70 % 0 % 1015,3 hPa 0,0 l/m SW 226 0 min 19,4 km/h (3 Bft)
07.12.2019 06:35 7,7 C 70 % 0 % 1015,3 hPa 0,0 l/m W-SW 238 0 min 14,7 km/h (3 Bft)
07.12.2019 06:30 7,7 C 70 % 0 % 1015,3 hPa 0,0 l/m S 178 0 min 13,8 km/h (3 Bft)
07.12.2019 06:25 7,7 C 70 % 0 % 1015,3 hPa 0,0 l/m W-SW 238 0 min 16,0 km/h (3 Bft)
07.12.2019 06:20 7,8 C 70 % 0 % 1015,3 hPa 0,0 l/m S-SW 213 0 min 15,6 km/h (3 Bft)
07.12.2019 06:15 7,8 C 70 % 0 % 1015,3 hPa 0,0 l/m W-SW 240 0 min 15,6 km/h (3 Bft)
07.12.2019 06:10 7,7 C 71 % 0 % 1015,3 hPa 0,0 l/m SW 229 0 min 22,0 km/h (4 Bft)
07.12.2019 06:05 7,7 C 71 % 0 % 1015,3 hPa 0,0 l/m SW 236 0 min 15,6 km/h (3 Bft)
07.12.2019 06:00 7,7 C 72 % 0 % 1015,3 hPa 0,0 l/m W-SW 245 0 min 16,0 km/h (3 Bft)
07.12.2019 05:55 7,7 C 74 % 0 % 1015,3 hPa 0,0 l/m W-SW 246 0 min 16,8 km/h (3 Bft)
07.12.2019 05:50 7,6 C 75 % 0 % 1015,3 hPa 0,0 l/m W-SW 240 0 min 13,8 km/h (3 Bft)
07.12.2019 05:45 7,5 C 76 % 1 % 1015,4 hPa 0,0 l/m W 259 0 min 24,6 km/h (4 Bft)
07.12.2019 05:40 7,5 C 78 % 2 % 1015,4 hPa 0,0 l/m W-SW 243 0 min 28,1 km/h (4 Bft)
07.12.2019 05:35 7,5 C 81 % 5 % 1015,4 hPa 0,0 l/m W-SW 240 0 min 15,6 km/h (3 Bft)
07.12.2019 05:30 7,4 C 84 % 9 % 1015,4 hPa 0,0 l/m W-SW 245 0 min 13,0 km/h (3 Bft)
07.12.2019 05:25 7,4 C 85 % 17 % 1015,4 hPa 0,0 l/m W 264 0 min 12,1 km/h (2 Bft)
07.12.2019 05:20 7,4 C 88 % 25 % 1015,4 hPa 0,0 l/m SW 231 0 min 14,7 km/h (3 Bft)
07.12.2019 05:15 7,3 C 89 % 36 % 1015,4 hPa 0,0 l/m W-SW 256 0 min 13,0 km/h (3 Bft)
07.12.2019 05:10 7,3 C 89 % 42 % 1015,4 hPa 0,0 l/m SW 226 0 min 19,4 km/h (3 Bft)
07.12.2019 05:05 7,3 C 89 % 44 % 1015,4 hPa 0,0 l/m W-SW 246 0 min 15,6 km/h (3 Bft)
07.12.2019 05:00 7,3 C 89 % 46 % 1015,4 hPa 0,0 l/m S 182 0 min 10,4 km/h (2 Bft)
07.12.2019 04:55 7,2 C 89 % 45 % 1015,4 hPa 0,0 l/m W-SW 238 0 min 12,1 km/h (2 Bft)
07.12.2019 04:50 7,2 C 88 % 44 % 1015,4 hPa 0,0 l/m S-SW 211 0 min 9,5 km/h (2 Bft)
07.12.2019 04:45 7,2 C 88 % 44 % 1015,4 hPa 0,0 l/m SW 234 0 min 16,8 km/h (3 Bft)
07.12.2019 04:40 7,2 C 86 % 45 % 1015,4 hPa 0,0 l/m W-SW 241 0 min 15,6 km/h (3 Bft)
07.12.2019 04:35 7,3 C 86 % 43 % 1015,4 hPa 0,0 l/m SW 232 0 min 12,1 km/h (2 Bft)
07.12.2019 04:30 7,3 C 85 % 47 % 1015,4 hPa 0,0 l/m W-SW 243 0 min 16,8 km/h (3 Bft)
07.12.2019 04:25 7,4 C 85 % 47 % 1015,4 hPa 0,0 l/m SW 226 0 min 21,2 km/h (4 Bft)
07.12.2019 04:20 7,4 C 86 % 44 % 1015,4 hPa 0,0 l/m S-SO 165 0 min 23,8 km/h (4 Bft)
07.12.2019 04:15 7,4 C 89 % 44 % 1014,3 hPa 0,0 l/m S-SW 204 0 min 16,8 km/h (3 Bft)
07.12.2019 04:10 7,4 C 91 % 46 % 1014,3 hPa 0,0 l/m W-SW 248 0 min 20,3 km/h (4 Bft)
07.12.2019 04:05 7,4 C 92 % 48 % 1014,3 hPa 0,0 l/m W-SW 239 0 min 25,5 km/h (4 Bft)
07.12.2019 04:00 7,4 C 93 % 49 % 1014,3 hPa 0,0 l/m SW 219 0 min 14,7 km/h (3 Bft)
07.12.2019 03:55 7,3 C 94 % 50 % 1014,4 hPa 0,0 l/m S-SW 213 0 min 16,0 km/h (3 Bft)
07.12.2019 03:50 7,3 C 94 % 50 % 1014,4 hPa 0,0 l/m W-SW 248 0 min 20,3 km/h (4 Bft)
07.12.2019 03:45 7,3 C 94 % 51 % 1014,4 hPa 0,0 l/m S 179 0 min 16,0 km/h (3 Bft)
07.12.2019 03:40 7,3 C 94 % 52 % 1014,4 hPa 0,0 l/m S-SW 211 0 min 18,6 km/h (3 Bft)
07.12.2019 03:35 7,2 C 94 % 52 % 1014,4 hPa 0,0 l/m S-SW 212 0 min 15,6 km/h (3 Bft)
07.12.2019 03:30 7,2 C 94 % 53 % 1014,4 hPa 0,0 l/m W-SW 251 0 min 13,0 km/h (3 Bft)
07.12.2019 03:25 7,2 C 94 % 53 % 1014,4 hPa 0,0 l/m S-SW 204 0 min 20,3 km/h (4 Bft)
07.12.2019 03:20 7,2 C 94 % 54 % 1014,4 hPa 0,0 l/m S 184 0 min 14,7 km/h (3 Bft)
07.12.2019 03:15 7,1 C 94 % 54 % 1014,4 hPa 0,0 l/m S 188 0 min 20,3 km/h (4 Bft)
07.12.2019 03:10 7,1 C 93 % 55 % 1014,4 hPa 0,0 l/m W-SW 247 0 min 14,7 km/h (3 Bft)
07.12.2019 03:05 7,0 C 92 % 55 % 1014,4 hPa 0,0 l/m S-SW 210 0 min 20,3 km/h (4 Bft)
07.12.2019 03:00 7,0 C 92 % 56 % 1014,4 hPa 0,3 l/m S-SW 201 0 min 19,4 km/h (3 Bft)
07.12.2019 02:55 7,0 C 91 % 55 % 1014,4 hPa 0,0 l/m S-SW 203 0 min 15,6 km/h (3 Bft)
07.12.2019 02:50 6,9 C 89 % 55 % 1014,4 hPa 0,0 l/m SW 222 0 min 15,6 km/h (3 Bft)
07.12.2019 02:45 6,8 C 86 % 55 % 1014,4 hPa 0,0 l/m SW 234 0 min 12,1 km/h (2 Bft)
07.12.2019 02:40 6,8 C 85 % 54 % 1014,4 hPa 0,0 l/m S-SW 193 0 min 10,4 km/h (2 Bft)
07.12.2019 02:35 6,8 C 84 % 54 % 1014,4 hPa 0,0 l/m S 174 0 min 7,8 km/h (2 Bft)
07.12.2019 02:30 6,8 C 83 % 53 % 1014,4 hPa 0,0 l/m SO 143 0 min 9,5 km/h (2 Bft)
07.12.2019 02:25 6,9 C 82 % 53 % 1014,4 hPa 0,0 l/m S 187 0 min 10,4 km/h (2 Bft)
07.12.2019 02:20 7,0 C 81 % 52 % 1014,4 hPa 0,0 l/m W-SW 237 0 min 11,2 km/h (2 Bft)
07.12.2019 02:15 7,0 C 80 % 52 % 1014,4 hPa 0,3 l/m SW 216 0 min 12,1 km/h (2 Bft)
07.12.2019 02:10 7,0 C 78 % 51 % 1014,4 hPa 0,0 l/m W 263 0 min 12,1 km/h (2 Bft)
07.12.2019 02:05 7,0 C 77 % 45 % 1014,4 hPa 0,0 l/m S-SW 211 0 min 16,0 km/h (3 Bft)
07.12.2019 02:00 6,9 C 76 % 43 % 1014,4 hPa 0,0 l/m W-SW 237 0 min 14,7 km/h (3 Bft)
07.12.2019 01:55 6,8 C 74 % 29 % 1014,4 hPa 0,0 l/m S-SW 198 0 min 12,1 km/h (2 Bft)
07.12.2019 01:50 6,7 C 72 % 26 % 1014,4 hPa 0,3 l/m S-SW 210 0 min 14,7 km/h (3 Bft)
07.12.2019 01:45 6,5 C 69 % 15 % 1014,4 hPa 0,0 l/m SW 218 0 min 14,7 km/h (3 Bft)
07.12.2019 01:40 6,6 C 66 % 8 % 1014,4 hPa 0,0 l/m SW 225 0 min 7,8 km/h (2 Bft)
07.12.2019 01:35 6,8 C 66 % 0 % 1014,4 hPa 0,0 l/m W-SW 240 0 min 7,8 km/h (2 Bft)
07.12.2019 01:30 6,9 C 65 % 0 % 1014,4 hPa 0,0 l/m SW 219 0 min 12,1 km/h (2 Bft)
07.12.2019 01:25 6,8 C 64 % 0 % 1014,4 hPa 0,0 l/m SW 233 0 min 10,4 km/h (2 Bft)
07.12.2019 01:20 6,8 C 62 % 0 % 1014,4 hPa 0,0 l/m W 264 0 min 13,8 km/h (3 Bft)
07.12.2019 01:15 6,8 C 59 % 0 % 1014,4 hPa 0,0 l/m W-SW 254 0 min 10,4 km/h (2 Bft)
07.12.2019 01:10 6,8 C 58 % 0 % 1014,4 hPa 0,0 l/m S-SW 192 0 min 18,6 km/h (3 Bft)
07.12.2019 01:05 6,7 C 57 % 0 % 1014,4 hPa 0,0 l/m SW 217 0 min 12,1 km/h (2 Bft)
07.12.2019 01:00 7,1 C 55 % 0 % 1014,4 hPa 0,0 l/m SW 228 0 min 7,8 km/h (2 Bft)
07.12.2019 00:55 7,5 C 55 % 0 % 1014,3 hPa 0,0 l/m S 191 0 min 7,8 km/h (2 Bft)
07.12.2019 00:50 7,6 C 55 % 0 % 1014,3 hPa 0,0 l/m W-SW 256 0 min 11,2 km/h (2 Bft)
07.12.2019 00:45 7,6 C 55 % 0 % 1014,3 hPa 0,0 l/m SW 235 0 min 12,1 km/h (2 Bft)
07.12.2019 00:40 7,6 C 55 % 0 % 1014,3 hPa 0,0 l/m O 96 0 min 11,2 km/h (2 Bft)
07.12.2019 00:35 7,7 C 55 % 0 % 1014,3 hPa 0,0 l/m S 174 0 min 12,1 km/h (2 Bft)
07.12.2019 00:30 7,8 C 55 % 0 % 1014,3 hPa 0,0 l/m SW 222 0 min 15,6 km/h (3 Bft)
07.12.2019 00:25 7,8 C 55 % 0 % 1014,3 hPa 0,0 l/m W-SW 256 0 min 14,7 km/h (3 Bft)
07.12.2019 00:20 7,7 C 55 % 0 % 1014,3 hPa 0,0 l/m SW 225 0 min 18,6 km/h (3 Bft)
07.12.2019 00:15 7,6 C 55 % 0 % 1014,3 hPa 0,0 l/m SW 233 0 min 15,6 km/h (3 Bft)
07.12.2019 00:10 7,4 C 55 % 0 % 1014,3 hPa 0,0 l/m S-SO 156 0 min 16,8 km/h (3 Bft)
07.12.2019 00:05 7,2 C 55 % 0 % 1014,4 hPa 0,0 l/m SW 227 0 min 18,6 km/h (3 Bft)
07.12.2019 00:00 6,9 C 56 % 0 % 1014,4 hPa 0,0 l/m SW 214 0 min 19,4 km/h (3 Bft)
_ Min-Zeit 01:45 00:05 - 00:25 - - - - 08:45
Minimum _ 6,5 C 55 % - 1014,3 hPa - - - - 0,0 km/h (0 Bft)
_ Max-Zeit 13:15 03:15 12:45 17:20 01:50 - - 08:20 07:00
Maximum _ 9,8 C 94 % 67 % 1019,5 hPa 0,3 l/m - - 5 min 29,8 km/h
W-SW (5 Bft)
Durchschnitt _ 8,0 C 70 % #2:10 h 1016,9 hPa #2,7 l/m W-SW - #2:10 h 15,0 km/h (3 Bft)